Home > Weather > Taichung > Past weeks

Flag for Taiwan Past Weather in Taichung, Taiwan — Yesterday and Last 2 Weeks

Now
82 °F

Fog.


Feels Like: 92 °F
Forecast: 81 / 94 °F
Wind: 5 mph from Southwest

Location: Chiang Kai Shek

Current Time: Jul 26, 2016 at 6:05:23 AM

Latest Report: Jul 26, 2016 at 5:30 AM


Visibility: 3 mi

Pressure: 29.80 "Hg

Humidity: 89%

Dew Point: 79 °F

Location of TaichungLocation

Past Weather in Taichung — Graph

°F

Taichung Temperature Yesterday

Maximum temperature yesterday: 91 °F (at 10:30 AM)
Minimum temperature yesterday: 79 °F (at 2:30 AM)
Average temperature yesterday: 86 °F

High & Low Weather Summary for the Past Weeks

 TemperatureHumidityPressure
High95 °F (Jul 16, 1:00 PM)94% (Jul 23, 1:30 AM)29.89 "Hg (Jul 23, 1:30 AM)
Low79 °F (Jul 19, 3:30 AM)50% (Jul 23, 3:00 PM)29.59 "Hg (Jul 11, 4:00 AM)
Average87 °F72%29.76 "Hg
* Reported Jul 11 4:00 AM — Jul 26 4:30 AM, Taichung, Weather by CustomWeather, © 2016

Note: Actual official high and low records may vary slightly from our data, if they occured in-between our weather recording intervals... More about our weather records

Advertising

Taichung Weather History for the Previous 24 Hours

Scroll right to see more
 ConditionsComfort  
Time TempWeatherWind HumidityBarometerVisibility
4:30 AM
Tue, Jul 26
82 °FPassing clouds.6 mph89%29.77 "Hg4 mi
4:00 AM82 °FPassing clouds.7 mph89%29.77 "Hg4 mi
3:30 AM82 °FPassing clouds.8 mph89%29.77 "Hg4 mi
3:00 AM82 °FPassing clouds.8 mph89%29.77 "Hg5 mi
2:30 AM82 °FPassing clouds.9 mph89%29.77 "Hg4 mi
2:00 AM84 °FPassing clouds.8 mph84%29.77 "Hg4 mi
1:30 AM84 °FPassing clouds.6 mph84%29.77 "Hg4 mi
1:00 AM84 °FPassing clouds.6 mph84%29.77 "Hg5 mi
12:30 AM84 °FPassing clouds.5 mph84%29.77 "HgN/A
12:00 AM84 °FPassing clouds.7 mph74%29.77 "HgN/A
11:30 PM
Mon, Jul 25
84 °FPassing clouds.6 mph70%29.77 "HgN/A
11:00 PM86 °FPassing clouds.7 mph66%29.77 "HgN/A
10:30 PM88 °FPassing clouds.5 mph62%29.77 "HgN/A
10:00 PM88 °FPassing clouds.6 mph62%29.80 "HgN/A
9:30 PM88 °FPassing clouds.8 mph62%29.80 "HgN/A
9:00 PM88 °FPassing clouds.9 mph62%29.77 "HgN/A
8:30 PM84 °FPassing clouds.6 mph84%29.77 "HgN/A
8:00 PM84 °FPassing clouds.5 mph84%29.77 "HgN/A
7:30 PM84 °FPassing clouds.5 mph84%29.77 "HgN/A
7:00 PM84 °FPassing clouds.6 mph84%29.77 "HgN/A
6:30 PM86 °FPassing clouds.6 mph79%29.77 "HgN/A
6:00 PM86 °FScattered clouds.7 mph75%29.74 "HgN/A
5:30 PM86 °FPassing clouds.6 mph79%29.74 "HgN/A
5:00 PM88 °FPassing clouds.6 mph70%29.74 "HgN/A
4:30 PM88 °FPassing clouds.8 mph70%29.77 "HgN/A
4:00 PM90 °FPassing clouds.10 mph63%29.77 "HgN/A
3:30 PM88 °FPassing clouds.10 mph75%29.77 "HgN/A
3:00 PM90 °FPassing clouds.13 mph75%29.77 "HgN/A
2:30 PM90 °FPassing clouds.13 mph71%29.77 "HgN/A
2:00 PM91 °FPassing clouds.15 mph67%29.77 "HgN/A
1:30 PM90 °FScattered clouds.14 mph71%29.77 "HgN/A
1:00 PM90 °FBroken clouds.15 mph71%29.77 "HgN/A
12:30 PM90 °FBroken clouds.16 mph71%29.80 "HgN/A
12:00 PM90 °FBroken clouds.17 mph67%29.80 "HgN/A
11:30 AM90 °FScattered clouds.16 mph67%29.80 "HgN/A
11:00 AM90 °FScattered clouds.16 mph71%29.83 "HgN/A
10:30 AM91 °FScattered clouds.14 mph59%29.83 "HgN/A
10:00 AM90 °FScattered clouds.13 mph63%29.83 "HgN/A
9:30 AM90 °FBroken clouds.13 mph67%29.83 "HgN/A
9:00 AM90 °FPartly sunny.9 mph71%29.83 "HgN/A
8:30 AM88 °FScattered clouds.10 mph70%29.83 "HgN/A
8:00 AM86 °FScattered clouds.12 mph75%29.83 "HgN/A
7:30 AM84 °FPassing clouds.12 mph84%29.83 "HgN/A
7:00 AM84 °FScattered clouds.8 mph74%29.83 "HgN/A
6:30 AM82 °FScattered clouds.6 mph74%29.83 "HgN/A
6:00 AM81 °FScattered clouds.5 mph79%29.80 "HgN/A
Weather by CustomWeather, © 2016

See weather overviewHow to use our weather pages